This is the latest recevied weather packets stored in our database for station/object NR6G-12. If no packets are shown the sender has not sent any weather packets the latest 10 day(s).
| Time | Temp. | Humidity | Pressure | Rain* | Wind** | Luminosity | Snow |
|---|---|---|---|---|---|---|---|
| 1777871401 | 8.33° C | 90% | 1011.9 hPa | 0 mm | - | - | - |
| 1777870681 | 8.89° C | 90% | 1012.6 hPa | 0 mm | - | - | - |
| 1777870321 | 8.89° C | 89% | 1012.6 hPa | 0 mm | - | - | - |
| 1777869961 | 8.89° C | 87% | 1012.7 hPa | 0 mm | - | - | - |
| 1777869601 | 8.89° C | 86% | 1012.5 hPa | 0 mm | - | - | - |
| 1777869243 | 8.89° C | 86% | 1012.5 hPa | 0 mm | - | - | - |
| 1777868881 | 9.44° C | 85% | 1012.5 hPa | 0 mm | - | - | - |
| 1777868521 | 9.44° C | 85% | 1012.5 hPa | 0 mm | - | - | - |
| 1777868161 | 9.44° C | 84% | 1012.4 hPa | 0 mm | - | - | - |
| 1777867801 | 9.44° C | 84% | 1012.4 hPa | 0 mm | - | - | - |
| 1777867443 | 9.44° C | 84% | 1012.5 hPa | 0 mm | - | - | - |
| 1777867081 | 9.44° C | 85% | 1012.4 hPa | 0 mm | - | - | - |
| 1777866721 | 9.44° C | 86% | 1012.4 hPa | 0 mm | - | - | - |
| 1777865641 | 9.44° C | 86% | 1012.2 hPa | 0 mm | - | - | - |
| 1777843741 | 11.67° C | 88% | 1011.9 hPa | 0 mm | - | - | - |
| 1777842720 | 13.33° C | 83% | 1012 hPa | 0 mm | - | - | - |
| 1777842360 | 13.33° C | 82% | 1011.9 hPa | 0 mm | - | - | - |
| 1777842000 | 13.33° C | 81% | 1011.8 hPa | 0 mm | - | - | - |
| 1777841640 | 13.33° C | 82% | 1011.8 hPa | 0 mm | - | - | - |
| 1777841280 | 13.33° C | 82% | 1011.9 hPa | 0 mm | - | - | - |
| 1777840920 | 12.22° C | 69% | 1011.9 hPa | 0 mm | - | - | - |
| 1777840560 | 12.22° C | 86% | 1011.9 hPa | 0 mm | - | - | - |
| 1777839840 | 12.22° C | 85% | 1012 hPa | 0 mm | - | - | - |
| 1777839480 | 13.33° C | 79% | 1012 hPa | 0 mm | - | - | - |
| 1777838760 | 14.44° C | 74% | 1012.3 hPa | 0 mm | - | - | - |
* Rain latest hour (hover to see other rain measurements)
** Current wind speed in m/s (hover to see current wind gust speed)